User: anonymous   Login
Location: Brno
(49.2000°N, 16.6330°E)
Time: 19:04:56
(UTC+02:00)
Language:

Cosmos 1459 Rocket - Orbit

View from above orbital plane
View from above orbital plane
View from above satellite
View from above satellite

Ground track
Ground track

The orbit data is extracted from the following two-line orbital elements,

1 14059U 83042B   18170.95536444 +.00000103 +00000-0 +85861-4 0  9999
2 14059 082.9705 148.9579 0041609 315.5494 044.2327 13.78628911766160
Epoch (UTC): 19 June 2018 22:55:43
Eccentricity: 0.0041609
inclination: 82.9705°
perigee height: 938 km
apogee height: 999 km
right ascension of ascending node: 148.9579°
argument of perigee: 315.5494°
revolutions per day: 13.78628911
mean anomaly at epoch: 44.2327°
orbit number at epoch: 76616

The dashed part of the orbit path shows where the satellite is in the earth's shadow,  

DLR